TimePDT,TemperatureF,Dew PointF,Humidity,Sea Level PressureIn,VisibilityMPH,Wind Direction,Wind SpeedMPH,Gust SpeedMPH,PrecipitationIn,Events,Conditions,WindDirDegrees,DateUTC
12:53 AM,73.9,55.9,53,30.03,-9999.0,West,9.2,-,N/A,,Haze,280,2012-10-04 07:53:00
1:53 AM,73.9,55.9,53,30.04,-9999.0,West,9.2,-,N/A,,Haze,270,2012-10-04 08:53:00
2:53 AM,73.9,55.9,53,30.03,-9999.0,WNW,9.2,-,N/A,,Haze,300,2012-10-04 09:53:00
3:53 AM,73.0,55.9,55,30.03,-9999.0,West,10.4,-,N/A,,Haze,280,2012-10-04 10:53:00
4:53 AM,73.0,55.9,55,30.03,-9999.0,West,9.2,-,N/A,,Haze,280,2012-10-04 11:53:00
5:53 AM,73.9,55.9,53,30.05,-9999.0,WNW,9.2,-,N/A,,Haze,290,2012-10-04 12:53:00
5:59 AM,64.4,55.4,73,30.07,5.0,WNW,8.1,-,N/A,,Haze,300,2012-10-04 12:59:00
6:53 AM,64.9,55.9,73,30.07,5.0,WNW,8.1,16.1,N/A,,Haze,290,2012-10-04 13:53:00
7:53 AM,64.9,55.9,73,30.09,5.0,WNW,10.4,-,N/A,,Haze,300,2012-10-04 14:53:00
8:53 AM,65.1,55.9,72,30.10,7.0,WNW,9.2,-,N/A,,Overcast,300,2012-10-04 15:53:00
9:53 AM,65.8,55.9,70,30.11,7.0,WNW,10.4,-,N/A,,Overcast,300,2012-10-04 16:53:00
10:53 AM,66.0,55.4,69,30.12,7.0,NW,9.2,-,N/A,,Overcast,310,2012-10-04 17:53:00
11:53 AM,66.9,55.4,66,30.12,7.0,NW,13.8,-,N/A,,Mostly Cloudy,310,2012-10-04 18:53:00
12:26 PM,68.0,55.4,64,30.13,7.0,NW,13.8,-,N/A,,Scattered Clouds,320,2012-10-04 19:26:00
12:53 PM,68.0,55.4,64,30.10,7.0,NW,16.1,19.6,N/A,,Scattered Clouds,320,2012-10-04 19:53:00
1:53 PM,68.2,57.0,67,30.08,7.0,NW,10.4,19.6,N/A,,Scattered Clouds,310,2012-10-04 20:53:00
2:53 PM,68.2,55.4,64,30.07,7.0,West,16.1,-,N/A,,Scattered Clouds,280,2012-10-04 21:53:00
3:53 PM,67.3,56.1,67,30.06,7.0,West,15.0,-,N/A,,Scattered Clouds,280,2012-10-04 22:53:00
4:53 PM,75.9,57.0,52,30.05,-9999.0,West,15.0,-,N/A,,Scattered Clouds,280,2012-10-04 23:53:00
5:53 PM,73.0,57.0,57,30.04,-9999.0,WNW,18.4,-,N/A,,Clear,290,2012-10-05 00:53:00
6:30 PM,69.8,55.4,60,30.06,-9999.0,WNW,16.1,-,N/A,,Partly Cloudy,290,2012-10-05 01:30:00
6:53 PM,71.1,55.9,59,30.04,-9999.0,WNW,15.0,-,N/A,,Mostly Cloudy,290,2012-10-05 01:53:00
7:53 PM,71.1,57.0,61,30.05,-9999.0,West,15.0,-,N/A,,Overcast,280,2012-10-05 02:53:00
8:53 PM,70.0,57.0,63,30.06,-9999.0,WNW,17.3,-,N/A,,Overcast,290,2012-10-05 03:53:00
9:51 PM,69.8,57.2,64,30.07,-9999.0,WNW,19.6,-,N/A,,Scattered Clouds,290,2012-10-05 04:51:00
9:53 PM,69.1,57.0,65,30.05,-9999.0,WNW,18.4,-,N/A,,Scattered Clouds,290,2012-10-05 04:53:00
10:53 PM,68.0,57.0,68,30.06,-9999.0,WNW,20.7,-,N/A,,Partly Cloudy,290,2012-10-05 05:53:00
11:53 PM,68.0,57.9,70,30.05,-9999.0,WNW,23.0,31.1,N/A,,Scattered Clouds,300,2012-10-05 06:53:00